Погода в Коркодоне

Погода в Коркодоне : погода сейчас, прогноз погоды и архив. Всё, что Вы хотите узнать о погоде в Коркодоне!

Поиск расширенной информации на нашем сайте:

Другие новости

Новости СМИ2

Главная страница сайта

Новости сайта

02.10.2013

Напоминаем, что на нашем новом сайте вы можете получить высокодетализированные прогнозы погоды по пунктам России, СНГ и мира (включающие важные для авиации метеовеличины, такие как направление и скорость ветра, видимость, явления погоды, количество и форма облачности, нижняя и верхняя граница облачности), а также ознакомиться с разнообразными материалами по авиационной метеорологии и подборкой полезных ссылок на эту тему.

Сайт Метеоцентр.Азия посвящён разработке технологий оптимизации авиаметеорологического обслуживания, включая проектирование и перспективное создание нескольких автоматизированных авиаметеорологических систем:
- система выпуска высокодетальных прогностических карт явлений погоды для нижнего воздушного пространства по России и ближнему зарубежью;
- система верификации прогнозов TAF (выпускаемых синоптиками официальных АМСГ РФ и ближнего зарубежья) и AUTOTAF (выпускаемых сайтом Метеоцентр.Азия) - выявление ошибок, онлайн-сопоставление с фактической погодой METAR, автоматическое внесение коррективов в прогнозы при резком отклонении фактической погоды от прогноза, подсчёт оправдываемости прогнозов по элементам и в целом;
- система обработки, анализа и отображения авиаметеорологической информации для применения провайдерами метеорологической информации.

Рекомендуем: детское кино Отечественное онлайн.

Погода в Коркодоне - сегодня

Время (UTC), дата Ветер
(°,м/с) 
Видим.   Явления Облачность Т
(°С)
Тd
(°С)
f(%) Тe
(°С)
Pmin
(гПа)
dP
(гПа)
Po
(мм)
O2
(г/м3)
Тmin Tmax R s Состояние
почвы
09 26.03.17 050 (СВ) 20000 м    ясно 
-10.3 -16.6 60 -10  1016.1  -0.5  752  316    -6       
12 26.03.17 тихо ()   20000 м    ясно 
-19.7 -21.6 85 -20  1016.2  -0.3  752  328           
15 26.03.17 340 (С) 20000 м    ясно 
-25.1 -26.9 85 -26  1016.5  752  336           
18 26.03.17 070 (В) 20000 м    3/0 верхняя 
[Ci fib]
-21.9 -23.2 89 -25  1016.5  0.2  752  331           
21 26.03.17 070 (В) 20000 м    3/0 верхняя 
[Ci fib]
-21.7 -22.9 90 -25  1017.2  0.7  753  331  -25.6      77  равномерный
сухой снег
100% 
00 27.03.17 090 (В) 20000 м    ясно 
-12.3 -17.5 65 -14  1016  -0.8  752  319           
03 27.03.17 090 (В) 20000 м    ясно 
-6.7 -15.1 51 -6  1014.4  -1.3  751  312           
06 27.03.17 120 (ЮВ) 20000 м    ясно 
-4.4 -13.5 49 -6  1013.7  -0.6  751  309           
09 27.03.17 040 (СВ) 20000 м    ясно 
-11.5 -18.7 55 -11  1014  751  317    -4.2       
12 27.03.17 тихо ()   20000 м    ясно 
-19.9 -21.5 87 -20               
15 27.03.17 080 (В) 20000 м    3/0 верхняя 
[Ci fib]
-20.9 -22.8 85 -24  1015.4  0.3  751  330           
18 27.03.17 060 (СВ) 20000 м    ясно 
-21.4 -22.6 90 -22  1015.7  0.3  752  330           
21 27.03.17 090 (В) 20000 м    ясно 
-20 -21.2 90 -23  1016.3  0.7  752  329  -24.2      77  равномерный
сухой снег
100% 
00 28.03.17 100 (В) 20000 м    ясно 
-12.9 -18.1 65 -15  1015  -1  751  319           
03 28.03.17 110 (В) 20000 м    ясно 
-6 -14.5 51 -7  1013.1  -1.5  750  310           
06 28.03.17 140 (ЮВ) 20000 м    ясно 
-2.8 -13.5 43 -4  1012.2  -0.8  750  306           
09 28.03.17 020 (С) 20000 м    ясно 
-9.2 -17.3 52 -11  1013.1  0.6  750  314    -2.6       
12 28.03.17 тихо ()   20000 м    ясно 
-18.8 -20.7 85 -19  1015.5  1.9  752  327           
15 28.03.17 тихо ()   20000 м    ясно 
-24 -25.2 90 -24  1017.3  1.6  753  334           
18 28.03.17 тихо ()   20000 м    ясно 
-27.2 -28.4 90 -27  1019.3  1.7  754  339           
21 28.03.17 тихо ()   20000 м    ясно 
-22.3 -23.6 89 -22  1021.3  2.2  756  333  -27.9      77  равномерный
сухой снег
100% 
00 29.03.17 280 (З) 20000 м    8/0 верхняя 
[Ci fib]
-13.3 -18.5 65 -15  1021.8  756  322           
03 29.03.17 270 (З) 20000 м    6/0 верхняя 
[Ci fib]
-7.4 -13.9 60 -10  1021.2  -0.3  756  314           
06 29.03.17 290 (З) 20000 м    6/0 верхняя 
[Ci fib]
-5.1 -13.6 51 -6  1021  -0.1  756  312           
09 29.03.17 320 (СЗ) 20000 м    4/0 верхняя 
[Ci fib]
-8.7 -14.7 62 -8  1022.1  0.9  757  316    -5       
Время (UTC), дата Ветер
(°,м/с) 
Видим.   Явления Облачность Т
(°С)
Тd
(°С)
f(%) Тe
(°С)
Pmin
(гПа)
dP
(гПа)
Po
(мм)
O2
(г/м3)
Тmin Tmax R s Состояние
почвы

Для получения пояснительной информации подведите курсор к названию столбца.

ПОГОДА в Коркодоне - архив

Всё, что Вы хотите узнать о погоде в Коркодоне - удобно и подробно!

Выберите нужную дату (начиная с 1 января 2015* года) и нажмите кнопку "Найти".
Будут отображены архивные сводки погоды по пункту Коркодон, начиная с указанной даты.


Отображать данные в формате CSV (для использования в таблицах Excel)


Внимание! Наш архив погоды предназначен исключительно для личного некоммерческого использования в познавательных целях. Если Вам необходимы официальные справки о состоянии погоды (для производственных, юридических, коммерческих и т.п. целей), обращайтесь в органы Росгидромета.

*Примечание: данная дата относится к архиву по метеостанциям СССР (Россия, СНГ, Балтия).
Архив по метеостанциям Зарубежной Европы и Азии (кроме Китая) хранится 10 дней, по другим регионам земного шара (Китай, Африка, Америка, Австралия, Океания) - 1 день.

Коркодон - район местоположения метеостанции


Название, широта, долгота, высота метеостанции:
Коркодон 64.7°ш. 154.1°д. 101 м над ур. моря [Российская Федерация]

Дополнительная информация

В oтличие oт бoльшинства пoгoдных сайтoв мы публикуем пoдрoбную метеoинфoрмацию в детальнoм прoфессиoнальнoм фoрмате.

Характеристики температуры и влажнoсти вoздуха измеряются на высoте 2 м в тени вдали oт зданий и деревьев.
Скoрoсть ветра измеряется на высoте 10 м (на урoвне рoста челoвека скoрoсть ветра ниже в 1.5-2 раза). Если метеoстанция нахoдится в гoрoде или в лесу, тo скoрoсть ветра занижена на 2-4 м/с пo сравнению с oткрытым местoм. Скoрoсть ветра над акватoриями крупных рек и oзёр, а также на вершинах хoлмoв на 2-5 м/с выше, чем в oбычных услoвиях.
Атмoсфернoе давление в разных тoчках местнoсти мoжет значительнo oтличаться oт давления на метеoстанции, в зависимoсти oт услoвий рельефа (при пoдъёме на 10 м давление пoнижается примернo на 1 мм рт.ст.).